Date String (YYYY-MM-DD hh:mm:ss) UTC,Instrument flags,absolute air pressure of the measurement (hPa),sample flow rate (lpm),inlet stack bypass flow (lpm),air temperature of the measurement (°C),ambient temperature measured by the external sensor (°C),aerosol sample conditioner tube jacket temperature (°C),OPC LED temperature (°C),internal box temperature (°C),relative humidity of the measurement (%),span deviation,mass concentration of particles derived from Lorenz-Mie calculation of OPC scattering (μg/m³),mass concentration of particles derived from Lorenz-Mie calculation of OPC scattering (μg/m³),mass concentration of particles derived from Lorenz-Mie calculation of OPC scattering (μg/m³)
DateTimeUTC,F1_M11,P_M11,Q1_M11,Q2_M11,T1_M11,T2_M11,T3_M11,T4_M11,T5_M11,U1_M11,ZSPAN_M11,X2_M11,X0_M11,X1_M11
2024-03-04 03:00:00,SystemResetWarning,0818.6,4.99,000.00,018.4,017.5,000.0,027.1,020.0,17.2,0000.0,0001.20,0007.17,0000.55
2024-03-04 03:01:00,SystemResetWarning,0818.6,5.00,000.00,018.4,017.4,000.0,027.1,020.0,17.1,0000.0,0001.17,0006.78,0000.54
2024-03-04 03:02:00,SystemResetWarning,0818.6,5.01,000.00,018.3,017.4,000.0,027.1,020.0,16.9,0000.0,0001.19,0005.77,0000.55
2024-03-04 03:03:00,SystemResetWarning,0818.6,5.00,000.00,018.3,017.4,000.0,027.1,020.0,16.9,0000.0,0001.21,0005.77,0000.54
2024-03-04 03:04:00,SystemResetWarning,0818.7,5.00,000.00,018.3,017.3,000.0,027.1,020.0,16.9,0000.0,0001.22,0006.74,0000.54
2024-03-04 03:05:00,SystemResetWarning,0818.8,5.00,000.00,018.3,017.3,000.0,027.1,020.0,16.9,0000.0,0001.21,0007.50,0000.53
2024-03-04 03:06:00,SystemResetWarning,0818.8,5.00,000.00,018.3,017.3,000.0,027.1,020.0,16.9,0000.0,0001.21,0007.94,0000.52
2024-03-04 03:07:00,SystemResetWarning,0818.8,5.00,000.00,018.3,017.3,000.0,027.1,020.0,16.9,0000.0,0001.20,0007.93,0000.51
2024-03-04 03:08:00,SystemResetWarning,0818.8,5.00,000.00,018.3,017.3,000.0,027.1,020.0,16.8,0000.0,0001.16,0007.08,0000.50
2024-03-04 03:09:00,SystemResetWarning,0818.7,5.00,000.00,018.3,017.3,000.0,027.1,020.0,16.7,0000.0,0001.12,0006.44,0000.50
2024-03-04 03:10:00,SystemResetWarning,0818.6,5.00,000.00,018.3,017.3,000.0,027.1,020.0,16.7,0000.0,0001.12,0006.22,0000.49
2024-03-04 03:11:00,SystemResetWarning,0818.6,5.00,000.00,018.3,017.3,000.0,027.1,020.0,16.8,0000.0,0001.14,0005.32,0000.48
2024-03-04 03:12:00,SystemResetWarning,0818.5,5.00,000.00,018.3,017.3,000.0,027.1,020.0,16.8,0000.0,0001.13,0005.90,0000.47
2024-03-04 03:13:00,SystemResetWarning,0818.4,5.00,000.00,018.3,017.3,000.0,027.1,020.0,16.8,0000.0,0001.09,0007.27,0000.46
2024-03-04 03:14:00,SystemResetWarning,0818.5,4.99,000.00,018.3,017.3,000.0,027.1,020.0,16.9,0000.0,0001.01,0007.27,0000.44
2024-03-04 03:15:00,SystemResetWarning,0818.6,5.00,000.00,018.3,017.3,000.0,027.1,020.0,16.9,0000.0,0001.06,0006.99,0000.44
2024-03-04 03:16:00,SystemResetWarning,0818.7,5.00,000.00,018.3,017.2,000.0,027.1,020.0,16.9,0000.0,0001.04,0006.26,0000.43
2024-03-04 03:17:00,SystemResetWarning,0818.8,5.00,000.00,018.2,017.2,000.0,027.1,020.0,17.0,0000.0,0001.01,0005.42,0000.43
2024-03-04 03:18:00,SystemResetWarning,0818.8,5.00,000.00,018.2,017.2,000.0,027.1,020.0,17.0,0000.0,0001.02,0005.94,0000.43
2024-03-04 03:19:00,SystemResetWarning,0818.8,5.00,000.00,018.2,017.2,000.0,027.0,020.0,16.9,0000.0,0001.06,0006.74,0000.42
2024-03-04 03:20:00,SystemResetWarning,0818.7,5.00,000.00,018.2,017.2,000.0,027.0,020.0,16.9,0000.0,0001.05,0006.64,0000.41
2024-03-04 03:21:00,SystemResetWarning,0818.7,4.99,000.00,018.2,017.1,000.0,027.0,020.0,16.9,0000.0,0001.03,0006.67,0000.40
2024-03-04 03:22:00,SystemResetWarning,0818.8,4.99,000.00,018.2,017.1,000.0,027.0,020.0,16.9,0000.0,0001.03,0006.72,0000.39
2024-03-04 03:23:00,SystemResetWarning,0818.8,5.00,000.00,018.2,017.1,000.0,027.0,020.0,17.0,0000.0,0001.08,0007.34,0000.39
2024-03-04 03:24:00,SystemResetWarning,0818.8,5.01,000.00,018.2,017.1,000.0,027.0,020.0,17.0,0000.0,0001.10,0006.48,0000.40
2024-03-04 03:25:00,SystemResetWarning,0819.1,5.00,000.00,018.2,017.1,000.0,027.0,020.0,17.0,0000.0,0001.11,0007.73,0000.40
2024-03-04 03:26:00,SystemResetWarning,0819.1,5.00,000.00,018.2,017.0,000.0,027.0,020.0,17.0,0000.0,0001.04,0007.31,0000.40
2024-03-04 03:27:00,SystemResetWarning,0819.0,5.00,000.00,018.2,017.1,000.0,027.1,020.0,17.0,0000.0,0001.09,0007.38,0000.41
2024-03-04 03:28:00,SystemResetWarning,0819.0,5.00,000.00,018.3,017.7,000.0,027.1,020.2,16.9,0000.0,0001.12,0007.46,0000.41
2024-03-04 03:29:00,SystemResetWarning,0819.0,4.99,000.00,018.5,018.5,000.0,027.1,020.6,16.8,0000.0,0001.10,0007.33,0000.42
2024-03-04 03:30:00,SystemResetWarning,0819.0,4.99,000.00,018.6,018.5,000.0,027.0,020.6,16.7,0000.0,0001.04,0007.13,0000.43
2024-03-04 03:31:00,SystemResetWarning,0818.8,5.00,000.00,018.5,018.3,000.0,027.0,020.3,16.6,0000.0,0001.03,0007.75,0000.44
2024-03-04 03:32:00,SystemResetWarning,0818.9,5.01,000.00,018.4,018.1,000.0,026.9,020.0,16.7,0000.0,0001.06,0008.32,0000.45
2024-03-04 03:33:00,SystemResetWarning,0819.2,4.99,000.00,018.4,017.9,000.0,027.0,020.0,16.8,0000.0,0001.08,0008.52,0000.47
2024-03-04 03:34:00,SystemResetWarning,0819.0,4.99,000.00,018.4,017.7,000.0,027.0,020.0,16.7,0000.0,0001.07,0008.52,0000.48
2024-03-04 03:35:00,SystemResetWarning,0818.9,5.00,000.00,018.3,017.6,000.0,027.0,020.0,16.7,0000.0,0001.07,0008.50,0000.49
2024-03-04 03:36:00,SystemResetWarning,0819.1,4.99,000.00,018.3,017.5,000.0,027.0,020.0,16.6,0000.0,0001.06,0007.58,0000.48
2024-03-04 03:37:00,SystemResetWarning,0818.8,5.00,000.00,018.3,017.4,000.0,027.0,020.0,16.6,0000.0,0001.06,0007.56,0000.49
2024-03-04 03:38:00,SystemResetWarning,0818.9,5.00,000.00,018.3,017.3,000.0,027.1,020.0,16.7,0000.0,0001.05,0008.05,0000.50
2024-03-04 03:39:00,SystemResetWarning,0818.8,5.00,000.00,018.3,017.3,000.0,027.1,020.0,16.6,0000.0,0001.03,0008.10,0000.50
2024-03-04 03:40:00,SystemResetWarning,0818.8,5.00,000.00,018.2,017.2,000.0,027.0,020.0,16.6,0000.0,0001.09,0008.25,0000.50
2024-03-04 03:41:00,SystemResetWarning,0818.8,5.00,000.00,018.2,017.2,000.0,027.0,020.0,16.6,0000.0,0001.11,0008.26,0000.50
2024-03-04 03:42:00,SystemResetWarning,0818.8,5.01,000.00,018.2,017.1,000.0,027.0,020.0,16.7,0000.0,0001.13,0008.59,0000.49
2024-03-04 03:43:00,SystemResetWarning,0818.8,5.00,000.00,018.2,017.4,000.0,027.1,020.1,16.7,0000.0,0001.12,0008.89,0000.48
2024-03-04 03:44:00,SystemResetWarning,0818.9,5.00,000.00,018.4,018.2,000.0,027.1,020.5,16.6,0000.0,0001.04,0008.62,0000.46
2024-03-04 03:45:00,SystemResetWarning,0818.9,5.00,000.00,018.7,019.0,000.0,027.2,020.9,16.4,0000.0,0000.99,0008.09,0000.44
2024-03-04 03:46:00,SystemResetWarning,0818.9,4.99,000.00,018.8,019.0,000.0,027.1,020.9,16.2,0000.0,0000.98,0008.01,0000.44
2024-03-04 03:47:00,SystemResetWarning,0818.8,4.99,000.00,018.7,018.6,000.0,027.0,020.5,16.3,0000.0,0000.99,0007.88,0000.44
2024-03-04 03:48:00,SystemResetWarning,0818.8,5.01,000.00,018.6,018.3,000.0,027.0,020.2,16.3,0000.0,0000.99,0007.85,0000.44
2024-03-04 03:49:00,SystemResetWarning,0818.9,5.00,000.00,018.5,018.1,000.0,027.0,020.0,16.4,0000.0,0000.98,0007.73,0000.43
2024-03-04 03:50:00,SystemResetWarning,0819.1,5.00,000.00,018.5,017.8,000.0,027.0,020.0,16.5,0000.0,0001.03,0007.85,0000.43
2024-03-04 03:51:00,SystemResetWarning,0819.0,4.99,000.00,018.4,017.7,000.0,027.0,020.0,16.5,0000.0,0001.02,0008.02,0000.42
2024-03-04 03:52:00,SystemResetWarning,0818.9,4.99,000.00,018.4,017.6,000.0,027.1,020.0,16.4,0000.0,0001.03,0008.06,0000.41
2024-03-04 03:53:00,SystemResetWarning,0819.0,4.99,000.00,018.4,017.5,000.0,027.1,020.0,16.5,0000.0,0001.05,0008.01,0000.41
2024-03-04 03:54:00,SystemResetWarning,0819.0,5.01,000.00,018.3,017.4,000.0,027.1,020.0,16.5,0000.0,0001.02,0007.29,0000.40
2024-03-04 03:55:00,SystemResetWarning,0818.9,5.00,000.00,018.3,017.3,000.0,027.1,020.0,16.5,0000.0,0001.10,0007.84,0000.40
2024-03-04 03:56:00,SystemResetWarning,0818.9,5.01,000.00,018.3,017.2,000.0,027.1,020.0,16.4,0000.0,0001.15,0007.86,0000.40
2024-03-04 03:57:00,SystemResetWarning,0819.2,4.99,000.00,018.3,017.2,000.0,027.1,020.0,16.4,0000.0,0001.24,0008.02,0000.40
2024-03-04 03:58:00,SystemResetWarning,0819.3,5.00,000.00,018.3,017.4,000.0,027.1,020.1,16.4,0000.0,0001.30,0008.24,0000.40
2024-03-04 03:59:00,SystemResetWarning,0819.3,5.01,000.00,018.5,018.3,000.0,027.2,020.6,16.2,0000.0,0001.34,0008.43,0000.39
